Tracking 24120 objects as of 5-Dec-2021
HD Live streaming from Space Station
objects crossing your sky now

BREEZE-KM R/B

Track BREEZE-KM R/B now!
10-day predictions


NORAD ID: 39764
Int'l Code: 2014-028D
Perigee: 1,158.9 km
Apogee: 1,510.1 km
Inclination: 82.4 °
Period: 112.2 minutes
Semi major axis: 7705 km
RCS: Unknown
Launch date: May 23, 2014
Source: Commonwealth of Independent States (former USSR) (CIS)
Launch site: PLESETSK MISSILE AND SPACE COMPLEX (PKMTR)

Note: This is a ROCKET BODY
aabbcc
Your satellite tracking list
Your tracking list is empty




NASA's NSSDC Master Catalog

Two Line Element Set (TLE):
1 39764U 14028D   21338.90372930 -.00000012  00000-0 -80401-4 0  9996
2 39764  82.4396 288.5148 0227922 285.0662  72.5325 12.83516007353101
Source of the keplerian elements: AFSPC